THORAD DELTA 1 DEB, 8164

Orbit data source: Space-Track

THORAD DELTA 1 DEB, 8164 is space debris in SSO originally from a launch on Fri, 15 Nov 1974 UTC launched from the Air Force Western Test Range (AFWTR). Debris objects in space refer to the collection of defunct objects orbiting the Earth. Examples of debris include non-operational satellites, rocket bodies, and fragments generated from explosions, collisions, or faulty payload assembly.

Loading next visibility...
Identifier
8164, 1974-089AE
Orbit
SSO
Last TLE update
21 hours ago
Origin
Manufacturer
Unknown
Mission
Spacecraft
Bus & Motor
Unknown
Mass
Unknown
Launch date (UTC)
1974-11-15 (51 years ago)
Launch vehicle
Unknown
Launch site
Air Force Western Test Range (AFWTR)
Object type
Payload
Rocket body
Debris
Shape & HBR
Unknown
Radar Cross Section
Medium (>0.1 m² and <1 m²)

Expand to show TLE details & history

TLE from 21 hours ago
0 THORAD DELTA 1 DEB
1 08164U 74089AE  25185.87909183 -.00000019  00000-0  18774-3 0  9994
2 08164 101.5912 322.3470 0120264 276.1341 237.4654 12.28967352271949
Epoch: 2025-07-04T21:05Z
TLE epoch observation values (Epoch: 2025-07-04T21:05:53.534Z)
Latitude
26.981°
Longitude
-91.28629°
Altitude
1,608.821 km
Speed
7.045 km/s
True Right ascension
09h 53m 14s
True Declination
26° 51' 25"
Sunlit
Object was in daylight at epoch
Visualization orbit readout
Latitude
-21.78899°
Longitude
88.22666°
Altitude
1,517.948 km
Speed
7.125 km/s
Apparent Right ascension
20h 10m 52s
Apparent Declination
-33° 49' 50"
Sunlit
Object is in full shadow
Visualization observer readout
Local Sidereal Time
05:33:07
Azimuth
268.333° W
Elevation
-58.135°
Doppler factor
1
Orbital elements
Apogee altitude
1,646.649 km
Perigee altitude
1,455.924 km
Semi-major axis
7,929.423 km
Eccentricity
0.01203
Inclination
101.5912°
RAAN
322.347°
Arg. of periapsis
276.1341°
True anomaly
Unknown
Mean anomaly
237.4654°
Eccentric anomaly
Unknown
Mean motion
3.07384 °/min
Orbital period
117.12 mins
BSTAR
0.00018774
Loading maneuver chart data...
Loading SW <> Apogee altitude chart data...
Loading historical data...
Loading historical data...
Loading historical data...
Loading historical data...
Loading historical data...
Loading historical data...
Loading historical data...

THORAD DELTA 1 DEB Visibility forecast

Observer location: undefined°, undefined°

Span
Click to sort rows by Start time (UTC) header in descending order
Start Az.
Max El. time (UTC)
Max El. Az.
Max El.
End time (UTC)
End Az.
13 mins2025-07-05 20:22:43.466Z44.643° NE2025-07-05 20:29:43.466Z95.174° ESE20.342°2025-07-05 20:35:43.466Z138.144° SSE
16 mins2025-07-05 22:17:43.466Z14.855° NNE2025-07-05 22:24:43.466Z330.84° NNW44.536°2025-07-05 22:33:43.466Z204.3° SW
11 mins2025-07-06 00:13:43.466Z347.239° N2025-07-06 00:18:43.466Z310.444° NW19.658°2025-07-06 00:24:43.466Z267.81° W
14 mins2025-07-06 07:34:43.466Z113.427° SE2025-07-06 07:40:43.466Z60.482° ENE30.646°2025-07-06 07:48:43.466Z357.681° N
16 mins2025-07-06 09:27:43.466Z182.017° SSW2025-07-06 09:35:43.466Z265.614° W40.054°2025-07-06 09:43:43.466Z334.179° NNW
|